APRIZESAT 8

Last updated on Sun Jun 21 2026 00:03:42 GMT+0000 (Coordinated Universal Time)

1 39425U 13066K 26171.43724441 .00000674 00000+0 79076-4 0 9994 2 39425 97.8221 118.8597 0044329 275.4956 84.1205 14.87657684680159
UTC large
Height (km)
Speed (km/s)
/
Latitude / Longitude
Inclination (degrees)
Orbital Period (minutes)
Azimuth
Elevation
Range (km)
Doppler Factor

Next 0 passes for location: London (51.5072 / 0.1276)

No passes found over London.
APRIZESAT 8